TimeCST,TemperatureF,Dew PointF,Humidity,Sea Level PressureIn,VisibilityMPH,Wind Direction,Wind SpeedMPH,Gust SpeedMPH,PrecipitationIn,Events,Conditions,WindDirDegrees,DateUTC
12:08 AM,37.9,28.0,68,-9999,-9999.0,North,4.6,-,N/A,,Unknown,10,2013-01-10 06:08:00
12:28 AM,37.0,29.1,73,-9999,-9999.0,NE,6.9,-,N/A,,Unknown,40,2013-01-10 06:28:00
12:48 AM,36.0,29.1,76,-9999,-9999.0,NNE,4.6,-,N/A,,Unknown,30,2013-01-10 06:48:00
1:08 AM,35.1,29.1,79,-9999,-9999.0,NE,6.9,-,N/A,,Unknown,40,2013-01-10 07:08:00
1:28 AM,35.1,29.1,79,-9999,-9999.0,NE,5.8,-,N/A,,Unknown,40,2013-01-10 07:28:00
1:48 AM,35.1,29.1,79,-9999,-9999.0,North,4.6,-,N/A,,Unknown,10,2013-01-10 07:48:00
2:08 AM,34.0,29.1,82,-9999,-9999.0,NNW,4.6,-,N/A,,Unknown,340,2013-01-10 08:08:00
2:28 AM,34.0,30.0,85,-9999,-9999.0,NW,2.3,-,N/A,,Unknown,320,2013-01-10 08:28:00
2:48 AM,34.0,29.1,82,-9999,-9999.0,NNW,5.8,-,N/A,,Unknown,330,2013-01-10 08:48:00
3:08 AM,34.0,29.1,82,-9999,-9999.0,NNW,6.9,-,N/A,,Unknown,330,2013-01-10 09:08:00
3:28 AM,34.0,30.0,85,-9999,-9999.0,NNW,4.6,-,N/A,,Unknown,340,2013-01-10 09:28:00
3:48 AM,34.0,30.0,85,-9999,-9999.0,NNW,4.6,-,N/A,,Unknown,340,2013-01-10 09:48:00
4:08 AM,33.1,29.1,85,-9999,-9999.0,North,5.8,-,N/A,,Unknown,350,2013-01-10 10:08:00
4:28 AM,33.1,29.1,85,-9999,-9999.0,NNW,5.8,-,N/A,,Unknown,340,2013-01-10 10:28:00
4:48 AM,33.1,29.1,85,-9999,-9999.0,North,5.8,-,N/A,,Unknown,350,2013-01-10 10:48:00
5:08 AM,33.1,29.1,85,-9999,-9999.0,North,5.8,-,N/A,,Unknown,360,2013-01-10 11:08:00
5:28 AM,33.1,29.1,85,-9999,-9999.0,North,6.9,-,N/A,,Unknown,10,2013-01-10 11:28:00
5:48 AM,33.1,29.1,85,-9999,-9999.0,NNE,4.6,-,N/A,,Unknown,20,2013-01-10 11:48:00
6:08 AM,33.1,30.0,89,-9999,-9999.0,North,4.6,-,N/A,,Unknown,10,2013-01-10 12:08:00
6:28 AM,33.1,29.1,85,-9999,-9999.0,North,4.6,-,N/A,,Unknown,10,2013-01-10 12:28:00
6:48 AM,33.1,30.0,89,-9999,-9999.0,NE,4.6,-,N/A,,Unknown,50,2013-01-10 12:48:00
7:08 AM,33.1,30.0,89,-9999,-9999.0,ENE,3.5,-,N/A,,Unknown,60,2013-01-10 13:08:00
7:28 AM,33.1,30.0,89,-9999,-9999.0,ENE,2.3,-,N/A,,Unknown,70,2013-01-10 13:28:00
7:48 AM,33.1,30.0,89,-9999,-9999.0,NW,1.2,-,N/A,,Unknown,320,2013-01-10 13:48:00
8:08 AM,33.1,30.0,89,-9999,-9999.0,NE,1.2,-,N/A,,Unknown,40,2013-01-10 14:08:00
8:28 AM,33.1,29.1,85,-9999,-9999.0,WNW,5.8,-,N/A,,Unknown,290,2013-01-10 14:28:00
8:48 AM,33.1,28.0,82,-9999,-9999.0,West,10.4,-,N/A,,Unknown,280,2013-01-10 14:48:00
9:08 AM,33.1,29.1,85,-9999,-9999.0,West,10.4,-,N/A,,Unknown,280,2013-01-10 15:08:00
9:28 AM,34.0,29.1,82,-9999,-9999.0,WNW,10.4,-,N/A,,Unknown,290,2013-01-10 15:28:00
9:48 AM,35.1,32.2,89,-9999,-9999.0,West,6.9,-,N/A,,Unknown,270,2013-01-10 15:48:00
10:08 AM,37.0,30.0,76,-9999,-9999.0,WNW,8.1,-,N/A,,Unknown,300,2013-01-10 16:08:00
10:28 AM,36.0,30.0,79,-9999,-9999.0,West,8.1,-,N/A,,Unknown,280,2013-01-10 16:28:00
10:48 AM,37.4,30.2,75,-9999,-9999.0,West,12.7,-,N/A,,Unknown,280,2013-01-10 16:48:00
11:08 AM,37.9,32.2,80,-9999,-9999.0,WNW,8.1,-,N/A,,Unknown,290,2013-01-10 17:08:00
11:28 AM,39.0,34.2,83,-9999,-9999.0,West,8.1,-,N/A,,Unknown,270,2013-01-10 17:28:00
11:48 AM,39.9,36.1,86,-9999,-9999.0,West,2.3,-,N/A,,Unknown,280,2013-01-10 17:48:00
12:08 PM,42.1,36.1,79,-9999,-9999.0,SSE,4.6,-,N/A,,Unknown,160,2013-01-10 18:08:00
12:28 PM,42.1,36.1,79,-9999,-9999.0,WSW,3.5,-,N/A,,Unknown,240,2013-01-10 18:28:00
12:48 PM,-9999,-9999,N/A,-9999,-9999.0,North,-9999.0,-,N/A,,Unknown,0,2013-01-10 18:48:00
1:08 PM,45.0,34.2,66,-9999,-9999.0,SSW,6.9,-,N/A,,Unknown,210,2013-01-10 19:08:00
1:28 PM,45.0,35.1,68,-9999,-9999.0,SSW,8.1,-,N/A,,Unknown,210,2013-01-10 19:28:00
1:48 PM,45.0,36.1,71,-9999,-9999.0,SSE,10.4,-,N/A,,Unknown,150,2013-01-10 19:48:00
2:08 PM,46.0,36.1,68,-9999,-9999.0,South,9.2,-,N/A,,Unknown,170,2013-01-10 20:08:00
2:28 PM,46.9,37.0,68,-9999,-9999.0,SSE,12.7,-,N/A,,Unknown,160,2013-01-10 20:28:00
2:48 PM,48.0,37.0,66,-9999,-9999.0,SSE,12.7,-,N/A,,Unknown,150,2013-01-10 20:48:00
3:08 PM,46.9,36.1,66,-9999,-9999.0,SSE,12.7,-,N/A,,Unknown,150,2013-01-10 21:08:00
3:28 PM,46.9,37.0,68,-9999,-9999.0,SSE,12.7,-,N/A,,Unknown,150,2013-01-10 21:28:00
3:48 PM,46.9,36.1,66,-9999,-9999.0,South,13.8,-,N/A,,Unknown,180,2013-01-10 21:48:00
4:08 PM,48.0,36.1,63,-9999,-9999.0,South,15.0,-,N/A,,Unknown,180,2013-01-10 22:08:00
4:28 PM,46.0,36.1,68,-9999,-9999.0,South,12.7,-,N/A,,Unknown,190,2013-01-10 22:28:00
4:48 PM,46.9,36.1,66,-9999,-9999.0,South,12.7,-,N/A,,Unknown,180,2013-01-10 22:48:00
5:08 PM,46.9,37.0,68,-9999,-9999.0,South,10.4,-,N/A,,Unknown,180,2013-01-10 23:08:00
5:28 PM,46.0,36.1,68,-9999,-9999.0,South,11.5,-,N/A,,Unknown,180,2013-01-10 23:28:00
6:08 PM,42.1,35.1,76,-9999,-9999.0,South,11.5,-,N/A,,Unknown,170,2013-01-11 00:08:00
6:28 PM,43.0,36.1,77,-9999,-9999.0,South,11.5,-,N/A,,Unknown,170,2013-01-11 00:28:00
6:48 PM,41.0,35.1,79,-9999,-9999.0,SSE,11.5,-,N/A,,Unknown,160,2013-01-11 00:48:00
7:08 PM,39.9,33.1,77,-9999,-9999.0,South,13.8,-,N/A,,Unknown,170,2013-01-11 01:08:00
7:28 PM,39.9,33.1,77,-9999,-9999.0,South,15.0,-,N/A,,Unknown,180,2013-01-11 01:28:00
7:48 PM,39.9,33.1,77,-9999,-9999.0,South,10.4,-,N/A,,Unknown,180,2013-01-11 01:48:00
8:08 PM,39.9,33.1,77,-9999,-9999.0,South,11.5,-,N/A,,Unknown,180,2013-01-11 02:08:00
8:28 PM,39.0,33.1,79,-9999,-9999.0,South,15.0,-,N/A,,Unknown,170,2013-01-11 02:28:00
8:48 PM,37.9,30.0,73,-9999,-9999.0,South,17.3,-,N/A,,Unknown,170,2013-01-11 02:48:00
9:08 PM,37.9,32.2,80,-9999,-9999.0,South,17.3,-,N/A,,Unknown,170,2013-01-11 03:08:00
9:28 PM,37.9,30.0,73,-9999,-9999.0,South,16.1,-,N/A,,Unknown,170,2013-01-11 03:28:00
9:48 PM,37.9,32.2,80,-9999,-9999.0,South,15.0,-,N/A,,Unknown,180,2013-01-11 03:48:00
10:08 PM,37.9,31.1,76,-9999,-9999.0,South,13.8,-,N/A,,Unknown,180,2013-01-11 04:08:00
10:28 PM,39.0,32.2,76,-9999,-9999.0,SSW,12.7,-,N/A,,Unknown,200,2013-01-11 04:28:00
10:48 PM,41.0,31.1,68,-9999,-9999.0,SSW,11.5,-,N/A,,Unknown,210,2013-01-11 04:48:00
11:08 PM,42.1,32.2,68,-9999,-9999.0,SSW,13.8,-,N/A,,Unknown,210,2013-01-11 05:08:00
11:28 PM,44.1,32.2,63,-9999,-9999.0,SW,12.7,-,N/A,,Unknown,220,2013-01-11 05:28:00
11:48 PM,43.0,30.0,60,-9999,-9999.0,SSW,16.1,-,N/A,,Unknown,210,2013-01-11 05:48:00